{"data":{"norad_id":60088,"intl_designator":"2024-116A","name":"CATCH-1","alt_names":[],"object_type":"PAYLOAD","status":"ACTIVE","operator":null,"country":"PRC","launch_date":"2024-06-22","launch_site_code":"XICLF","launch_vehicle":null,"mission":null,"orbit_class":"UNKNOWN","rcs_meters":null,"size_class":null,"mass_kg":null,"dimensions":null,"purposes":[],"wikipedia_slug":null,"has_3d_model":false,"image_url":null,"decayed_at":null,"tle_current":{"epoch":"2026-09-22T23:40:50.186208Z","epoch_age_seconds":63788,"freshness":"FRESH","line1":"1 60088U 24116A   26265.98669197  .00001370  00000+0  14188-3 0  9997","line2":"2 60088  28.9945 211.4939 0003834 345.2176  14.8305 14.85143503122219","mean_motion":14.85143503,"eccentricity":0.0003834,"inclination_deg":28.9945,"raan_deg":211.4939,"arg_perigee_deg":345.2176,"mean_anomaly_deg":14.8305,"bstar":0.00014188,"rev_number":12221,"period_min":96.960327206845,"perigee_km":610.45501675773,"apogee_km":615.81592448821,"semimajor_km":6991.272470623,"source":"CELESTRAK","updated_at":"2026-09-23T09:00:20.408207Z"}}}